Regional Weather Roundup
Issued by NWS

Home | Current Version | Previous Version | Graphics & Text | Print | Product List | Glossary On
Versions: 1 2 3 4 5 6 7 8 9 10 11 12 13 14 15 16 17 18 19 20 21 22 23 24 25 26 27 28 29 30 31 32 33 34 35 36 37 38 39 40 41 42 43 44 45 46 47 48 49 50
000
ASUS43 KMPX 251601
RWRMN
WEATHER ROUNDUP FOR MINNESOTA
NATIONAL WEATHER SERVICE TWIN CITIES/CHANHASSEN MN
1100 AM CDT MON MAY 25 2015


NOTE: "FAIR" INDICATES FEW OR NO CLOUDS BELOW 12,000 FEET WITH NO
SIGNIFICANT WEATHER AND/OR OBSTRUCTIONS TO VISIBILITY. N/A MEANS
CURRENT SKY AND/OR WEATHER CONDITIONS ARE NOT AVAILABLE.

MNZ060>063-068>070-251700-
   Twin Cities Metro

CITY           SKY/WX    TMP DP  RH WIND       PRES   REMARKS
TWIN CITIES    CLOUDY    61  58  90 SW12      29.68S
ST PAUL        PTSUNNY   64  60  87 SW10      29.69R
CRYSTAL        CLOUDY    60  58  92 SW10      29.67S
BLAINE         CLOUDY    63  61  94 SW13      29.68R
LAKEVILLE      CLOUDY    63  57  82 W7G16     29.69F
EDEN PRAIRIE   CLOUDY    62  58  86 SW10      29.68S
SOUTH ST PAUL  CLOUDY    65  60  86 SW10      29.69R
LAKE ELMO      CLOUDY    63  61  94 SW10      29.70R
$$
MNZ001>005-007-008-013>017-022>024-027-028-251700-
   Northwest Minnesota

CITY           SKY/WX    TMP DP  RH WIND       PRES   REMARKS
BEMIDJI        LGT RAIN  57  55  92 N7        29.77R
HALLOCK        CLOUDY    66  52  59 N6        29.78S
ROSEAU         CLOUDY    68  52  56 NE5       29.77F
WARROAD        CLOUDY    64  52  63 NE3       29.78S
THIEF RVR FALL CLOUDY    63  52  67 CALM      29.78S
CROOKSTON      CLOUDY    64  54  68 NW7       29.78S
FOSSTON        DRIZZLE   61  54  77 CALM      29.79S
DETROIT LAKES  RAIN      55  54  94 NE13G20   29.76S
MOORHEAD       LGT RAIN  61  57  88 N12       29.77S
PARK RAPIDS    RAIN      58  54  86 NE15G25   29.71F FOG
MAHNOMEN       RAIN      58  55  87 NE10      29.76F
$$
MNZ006-009>011-018-025>026-251700-
   North Central Minnesota

CITY           SKY/WX    TMP DP  RH WIND       PRES   REMARKS
BAUDETTE       CLOUDY    60  53  77 SE3       29.77S
FLAG ISLAND    CLOUDY    64  45  48 CALM      29.76F
INTL FALLS     CLOUDY    62  53  72 CALM      29.78F
WASKISH        CLOUDY    63  55  77 CALM      29.78F
BIG FORK       LGT RAIN  61  55  82 NE6       29.76F
LONGVILLE      RAIN      57  55  94 NE9       29.70F
GRAND RAPIDS   CLOUDY    57  54  88 NE3       29.73S
CRANE LAKE     DRIZZLE   61  55  82 CALM      29.79F
COOK           RAIN      59  57  94 E3        29.76F
WALKER         RAIN      56  55  95 NE8       29.73F
$$
MNZ012-019>021-037-251700-
   Northeast Minnesota

CITY           SKY/WX    TMP DP  RH WIND       PRES   REMARKS
DULUTH         LGT RAIN  58  55  90 E18G29    29.69S
ELY            DRIZZLE   57  55  94 NE7       29.75F
HIBBING        RAIN      58  55  90 NE12G20   29.72F FOG
EVELETH        RAIN      57  55  94 NE8       29.74F
DULUTH HARBOR  LGT RAIN  48  46  93 E17       29.70S
TWO HARBORS    RAIN      61  55  82 NE12G25   29.69R
GRAND MARAIS     N/A     59  55  87 NE17G24   29.74F
G MARAIS ARPRT LGT RAIN  55  52  88 NE12      29.78F
$$
MNZ029>031-032-039>041-046>048-054>057-064-251700-
   West Central Minnesota

CITY           SKY/WX    TMP DP  RH WIND       PRES   REMARKS
FERGUS FALLS   RAIN      55  55 100 N12G18    29.72S
WHEATON        LGT RAIN  54  54 100 N14G20    29.73S
MORRIS         CLOUDY    61  59  94 N10       29.67F
ALEXANDRIA     LGT RAIN  58  58 100 NE6       29.68F
ELBOW LAKE     RAIN      56  56  97 N10G18    29.69S
WADENA         RAIN      55  55 100 N9        29.68S
GLENWOOD       CLOUDY    57  57 100 N3        29.68S
APPLETON       CLOUDY    63  57  82 W9        29.68S
BENSON         CLOUDY    61  57  88 NW3       29.68S
ORTONVILLE     CLOUDY    61  55  82 NW9       29.70R
MADISON        CLOUDY    61  57  88 W9        29.70R
WILLMAR        FAIR      61  61 100 W12       29.69S
$$
MNZ033>034-036-042>043-049>051-058-059-251700-
   Central Minnesota

CITY           SKY/WX    TMP DP  RH WIND       PRES   REMARKS
ST CLOUD       CLOUDY    60  58  92 SW9       29.66S
SAUK CENTRE    LGT RAIN  58  56  95 CALM      29.67S
PAYNESVILLE    CLOUDY    58  56  95 S8        29.67S
AITKIN         LGT RAIN  57  52  82 E12G17    29.66S
PINE RIVER     RAIN      57  57 100 NE9G16    29.72S
BRAINERD       LGT RAIN  57  56  96 E7        29.68R FOG
STAPLES        RAIN      55  55 100 NE3       29.67S
LONG PRAIRIE   LGT RAIN  55  55 100 NE3       29.67S
LITTLE FALLS   LGT RAIN  55  55 100 CALM      29.66S
LITCHFIELD     CLOUDY    63  61  94 W6        29.68S
BUFFALO        CLOUDY    61  57  87 SW5       29.68S
MAPLE LAKE     CLOUDY    61  59  94 SW5       29.68S
$$
MNZ037-044-045-052-053-251700-
   East Central Minnesota

CITY           SKY/WX    TMP DP  RH WIND       PRES   REMARKS
PRINCETON      RAIN      61  59  94 S6        29.67S
MORA           DRIZZLE   55  54  94 E6        29.68F
CAMBRIDGE      CLOUDY    61  54  77 CALM      29.65S HAZE
RUSH CITY      CLOUDY    58  57  96 SE3       29.67F FOG
MOOSE LAKE     CLOUDY    54  52  94 NE7       29.67S FOG
HINCKLEY       CLOUDY    59  59 100 E5        29.67S
CLOQUET        CLOUDY    54  52  94 E12G17    29.70R
MCGREGOR       CLOUDY    55  55 100 E9        29.69S
$$
MNZ071>073-080-081-089-090-097-098-251700-
   Southwest Minnesota

CITY           SKY/WX    TMP DP  RH WIND       PRES   REMARKS
MONTEVIDEO     CLOUDY    63  63 100 NW10      29.70R
GRANITE FALLS  CLOUDY    62  58  86 SW15      29.71S
CANBY          CLOUDY    61  57  87 W9        29.73R
MARSHALL       CLOUDY    64  54  68 W14       29.72R
REDWOOD FALLS  CLOUDY    62  57  83 W8        29.71R
OLIVIA         CLOUDY    59  54  82 W10       29.69R
WINDOM         CLOUDY    64  57  77 SW13G18   29.74F
WORTHINGTON    CLOUDY    61  55  82 SW13      29.76S
JACKSON        CLOUDY    63  59  88 W10       29.76S
TRACY          CLOUDY    64  58  81 W13       29.73S
SLAYTON        PTSUNNY   62  58  86 SW10      29.75S
$$
MNZ065>067-074>077-082>085-091>093-251700-
   South Central Minnesota

CITY           SKY/WX    TMP DP  RH WIND       PRES   REMARKS
MANKATO        CLOUDY    63  57  82 SW16      29.73R
NEW ULM        CLOUDY    63  59  88 SW13      29.72R
ST JAMES       PTSUNNY   66  61  82 SW13      29.74S
FAIRMONT       CLOUDY    64  55  72 SW13      29.75F
GLENCOE        CLOUDY    62  59  91 SW10      29.69R
FARIBAULT      PTSUNNY   64  61  88 SW12      29.72S
OWATONNA       PTSUNNY   66  61  82 SW17      29.73S
WASECA         CLOUDY    63  57  82 SW15      29.75R
ALBERT LEA     CLOUDY    64  61  88 SW9G18    29.75S
$$
MNZ078>079-086>088-094>096-251700-
   Southeast Minnesota

CITY           SKY/WX    TMP DP  RH WIND       PRES   REMARKS
ROCHESTER      CLOUDY    64  60  87 SW15      29.76R
RED WING       CLOUDY    66  63  88 SW16      29.69S
STANTON        CLOUDY    66  60  79 SW14G20   29.70S
DODGE CENTER   CLOUDY    64  61  88 SW17      29.74S
WINONA         CLOUDY    70  63  78 SW7       29.73S
AUSTIN         CLOUDY    64  61  88 SW13      29.75S
PRESTON        CLOUDY    64  59  84 SW9G17    29.77R
$$
ABBREVIATIONS USED IN REMARKS
   TC - TEMPERATURES IN CELSIUS
  WCI - WIND CHILL INDEX
   HX - HEAT INDEX
  VSB - VISIBILITY
$$



USA.gov is the U.S. government's official web portal to all federal, state and local government web resources and services.